CW4167 Weather Reports


Display with metric or nautical units.
time (UTC)temp
F
wind
direction
speed
MPH
gust
MPH
rain 1hr
in
rain 24hr
in
rain mn
in
humidity
%
barometer
mb
20260904233207 57 255 11.0 17.0 0.00 0.45 0.00 88 1000.3
20260904232708 57 249 12.0 21.0 0.00 0.45 0.00 88 1000.4
20260904232209 57 250 10.0 20.0 0.00 0.45 0.00 87 1000.3
20260904231709 57 261 10.0 16.0 0.00 0.45 0.00 87 1000.1
20260904231207 57 235 11.0 18.0 0.00 0.45 0.00 87 1000.1
20260904230708 57 257 14.0 21.0 0.00 0.45 0.00 87 1000.1
20260904225707 57 259 13.0 20.0 0.00 0.45 0.00 87 1000.1
20260904225207 57 256 13.0 18.0 0.00 0.45 0.00 87 1000.1
20260904224708 57 266 9.0 16.0 0.00 0.45 0.00 87 1000.0
20260904222707 57 270 10.0 15.0 0.00 0.45 0.00 87 999.9
20260904221707 57 252 11.0 21.0 0.00 0.45 0.00 87 999.9
20260904220708 57 269 10.0 21.0 0.00 0.45 0.00 87 1000.0
20260904220206 57 257 14.0 26.0 0.00 0.45 0.00 88 1000.0
20260904215206 57 277 10.0 16.0 0.00 0.45 0.45 88 999.9
20260904214707 57 254 11.0 22.0 0.00 0.45 0.45 87 999.8
20260904212707 56 247 11.0 23.0 0.00 0.45 0.45 88 999.6
20260904212206 56 252 13.0 23.0 0.00 0.45 0.45 88 999.6
20260904211708 56 256 11.0 20.0 0.00 0.45 0.45 88 999.6
20260904210707 56 267 13.0 23.0 0.00 0.45 0.45 88 999.6
20260904210206 56 283 14.0 28.0 0.00 0.45 0.45 88 999.5
20260904205708 56 250 12.0 14.0 0.00 0.45 0.45 88 999.5
20260904205208 56 267 14.0 25.0 0.00 0.45 0.45 88 999.3
20260904204206 56 267 13.0 21.0 0.00 0.45 0.45 88 999.3
20260904202706 56 273 14.0 22.0 0.00 0.45 0.45 89 999.2
20260904202207 56 258 13.0 24.0 0.00 0.45 0.45 89 999.2
20260904201207 57 257 16.0 26.0 0.00 0.45 0.45 89 999.0
20260904195707 57 259 17.0 30.0 0.00 0.45 0.45 91 998.9
20260904195208 57 259 15.0 28.0 0.00 0.45 0.45 90 998.7
20260904194707 57 266 11.0 22.0 0.00 0.45 0.45 91 998.7
20260904194207 57 276 16.0 22.0 0.00 0.45 0.45 91 998.7
20260904193708 57 271 16.0 21.0 0.00 0.45 0.45 91 998.5
20260904193206 58 274 12.0 18.0 0.00 0.45 0.45 91 998.2
20260904191709 58 263 11.0 18.0 0.00 0.45 0.45 92 998.2
20260904184707 58 245 14.0 24.0 0.00 0.45 0.45 91 997.6
20260904183206 57 285 10.0 16.0 0.00 0.45 0.45 91 997.5
20260904182706 57 234 4.0 14.0 0.00 0.45 0.45 91 997.4
20260904182208 57 252 3.0 13.0 0.00 0.45 0.45 91 997.4
20260904181206 57 252 3.0 7.0 0.02 0.45 0.45 91 997.4
20260904180708 57 256 3.0 6.0 0.05 0.45 0.45 91 997.4
20260904175706 57 248 4.0 7.0 0.09 0.45 0.45 91 997.4
20260904175206 57 241 1.0 6.0 0.10 0.45 0.45 90 997.3
20260904173207 57 227 3.0 7.0 0.15 0.45 0.45 90 997.4
20260904172707 57 219 4.0 6.0 0.15 0.45 0.45 90 997.4
20260904171706 58 228 3.0 7.0 0.14 0.44 0.44 89 997.5
20260904170207 59 254 7.0 9.0 0.07 0.37 0.37 89 997.4
20260904165707 59 222 4.0 8.0 0.06 0.36 0.36 89 997.3
20260904164707 59 262 7.0 10.0 0.04 0.34 0.34 89 997.3
20260904164206 59 225 6.0 8.0 0.02 0.32 0.32 89 997.3
20260904161208 60 225 6.0 10.0 0.01 0.30 0.30 90 997.2
20260904155206 61 249 7.0 10.0 0.01 0.30 0.30 91 997.5
20260904154206 61 209 4.0 6.0 0.01 0.30 0.30 91 997.6
20260904153706 61 224 5.0 8.0 0.01 0.30 0.30 91 997.5
20260904152206 61 299 4.0 7.0 0.00 0.29 0.29 91 997.5
20260904151707 61 227 4.0 6.0 0.00 0.29 0.29 92 997.5
20260904150206 60 241 2.0 7.0 0.00 0.29 0.29 92 997.6
20260904143707 59 189 5.0 10.0 0.00 0.29 0.29 92 997.5
20260904143208 59 179 5.0 6.0 0.00 0.29 0.29 92 997.6
20260904142707 58 184 4.0 5.0 0.00 0.30 0.29 92 997.8
20260904142206 58 176 2.0 7.0 0.01 0.30 0.29 92 997.8
20260904141706 58 219 4.0 7.0 0.01 0.32 0.29 92 997.9
20260904141207 58 220 3.0 6.0 0.04 0.33 0.29 92 997.9
20260904140709 58 221 3.0 6.0 0.06 0.33 0.29 91 998.0
20260904135708 58 244 2.0 9.0 0.09 0.33 0.29 91 998.1
20260904134206 57 222 5.0 8.0 0.09 0.33 0.29 91 998.1
20260904133706 57 289 2.0 7.0 0.10 0.33 0.29 91 998.2
20260904132207 60 285 12.0 18.0 0.10 0.32 0.28 91 998.2
20260904131706 61 288 14.0 20.0 0.11 0.32 0.28 92 998.2
20260904131207 61 236 3.0 13.0 0.07 0.29 0.24 92 997.8
20260904130706 61 276 3.0 9.0 0.05 0.28 0.22 92 997.8
20260904125706 61 206 6.0 13.0 0.04 0.26 0.20 92 997.6
20260904125206 61 190 7.0 13.0 0.04 0.26 0.20 92 997.6
20260904124208 61 201 7.0 10.0 0.06 0.26 0.20 92 997.6
20260904123206 61 195 7.0 13.0 0.04 0.23 0.18 92 997.8
20260904122206 61 184 7.0 13.0 0.06 0.23 0.18 92 997.8
20260904115706 61 165 5.0 13.0 0.05 0.21 0.16 92 998.4
20260904115205 61 202 6.0 8.0 0.06 0.21 0.16 92 998.4
20260904114708 61 188 5.0 8.0 0.05 0.20 0.15 92 998.4
20260904113706 61 182 3.0 8.0 0.05 0.19 0.14 92 998.6
20260904112205 61 196 5.0 7.0 0.05 0.17 0.12 91 998.7
20260904111706 60 182 4.0 7.0 0.05 0.17 0.12 92 998.6
20260904111208 60 163 4.0 7.0 0.05 0.17 0.12 91 998.6
20260904105207 60 183 5.0 8.0 0.04 0.17 0.10 91 999.1
20260904104206 60 189 5.0 10.0 0.03 0.16 0.09 91 999.1
20260904102705 60 171 6.0 10.0 0.03 0.15 0.07 91 999.3
20260904102205 61 186 8.0 13.0 0.02 0.14 0.06 91 999.3
20260904101705 61 193 9.0 15.0 0.02 0.14 0.06 91 999.4
20260904095705 61 183 9.0 14.0 0.01 0.14 0.05 91 999.7
20260904093206 61 196 9.0 18.0 0.01 0.14 0.05 91 999.9
20260904092207 61 185 9.0 15.0 0.01 0.13 0.04 91 1000.2
20260904091705 61 185 9.0 17.0 0.01 0.14 0.04 91 1000.5
20260904091205 61 176 8.0 14.0 0.01 0.14 0.04 91 1000.5
20260904090705 60 181 6.0 13.0 0.02 0.14 0.04 91 1000.5
20260904090207 60 202 6.0 9.0 0.03 0.14 0.04 91 1000.6
20260904085707 60 177 8.0 13.0 0.03 0.14 0.04 91 1000.6
20260904085206 60 171 8.0 14.0 0.03 0.14 0.04 91 1000.8
20260904084705 60 185 7.0 14.0 0.04 0.14 0.04 91 1000.8
20260904084207 60 182 6.0 10.0 0.04 0.14 0.04 91 1000.8
20260904083706 60 173 7.0 10.0 0.04 0.14 0.04 90 1001.0
20260904082707 59 171 7.0 10.0 0.03 0.14 0.03 90 1001.0
20260904080705 59 187 7.0 10.0 0.02 0.13 0.02 90 1001.3
20260904075705 59 182 6.0 10.0 0.01 0.12 0.01 89 1001.2
20260904074706 59 182 9.0 13.0 0.00 0.11 0.00 89 1001.3
20260904074205 59 175 7.0 13.0 0.00 0.11 0.00 89 1001.5
20260904073207 59 172 8.0 13.0 0.00 0.13 0.00 89 1001.3
20260904072706 59 156 6.0 13.0 0.00 0.13 0.00 89 1001.7
20260904070705 58 165 5.0 13.0 0.00 0.14 0.00 89 1001.7
20260904065705 58 162 6.0 10.0 0.00 0.14 0.00 89 1001.9
20260904064706 58 167 6.0 7.0 0.00 0.14 0.00 89 1002.0
20260904064205 58 174 6.0 10.0 0.00 0.14 0.00 89 1002.2
20260904062705 58 162 5.0 10.0 0.00 0.14 0.00 89 1002.3
20260904061707 58 170 5.0 7.0 0.00 0.14 0.00 88 1002.7
20260904060705 58 157 5.0 8.0 0.00 0.14 0.00 88 1002.7
20260904055707 58 164 3.0 5.0 0.00 0.14 0.00 88 1002.7
20260904055205 58 167 4.0 5.0 0.00 0.14 0.00 87 1002.9
20260904053705 58 190 2.0 5.0 0.00 0.14 0.00 87 1003.2
20260904052705 58 218 3.0 6.0 0.00 0.15 0.00 87 1003.3
20260904052205 58 228 4.0 8.0 0.00 0.15 0.00 86 1003.4
20260904051706 58 231 5.0 8.0 0.00 0.15 0.00 86 1003.3
20260904051205 58 250 3.0 8.0 0.00 0.15 0.00 86 1003.3
20260904050705 58 203 6.0 10.0 0.00 0.15 0.00 86 1003.3
20260904045706 58 249 6.0 13.0 0.00 0.15 0.00 86 1003.5
20260904045205 58 257 6.0 9.0 0.00 0.15 0.00 86 1003.5
20260904044707 58 233 6.0 10.0 0.00 0.15 0.00 86 1003.4
20260904042205 58 230 6.0 10.0 0.00 0.15 0.00 86 1003.5
20260904035205 59 230 6.0 13.0 0.00 0.16 0.00 86 1003.9
20260904034206 59 281 5.0 9.0 0.00 0.16 0.00 86 1004.1
20260904033704 59 207 3.0 6.0 0.00 0.16 0.00 86 1004.1
20260904031705 59 223 6.0 8.0 0.00 0.16 0.00 86 1004.3
20260904030704 59 257 5.0 7.0 0.00 0.16 0.00 85 1004.4
20260904025204 60 257 5.0 13.0 0.00 0.16 0.00 85 1004.3
20260904024704 60 269 7.0 10.0 0.00 0.16 0.00 85 1004.3
20260904022704 60 246 8.0 16.0 0.00 0.16 0.00 84 1004.5
20260904021204 60 248 7.0 16.0 0.00 0.16 0.00 85 1004.4
20260904020704 60 247 10.0 17.0 0.00 0.16 0.00 85 1004.7
20260904020204 60 261 10.0 21.0 0.00 0.16 0.00 85 1004.7
20260904014204 60 252 10.0 17.0 0.00 0.16 0.00 85 1004.8
20260904013204 60 247 15.0 20.0 0.00 0.16 0.00 85 1004.7
20260904012704 60 247 12.0 17.0 0.00 0.16 0.00 85 1004.7
20260904011706 60 263 7.0 16.0 0.00 0.17 0.00 85 1004.6
20260904011205 60 245 7.0 17.0 0.00 0.18 0.00 85 1004.8
20260904010204 60 249 10.0 17.0 0.00 0.19 0.00 85 1004.8
20260904005204 60 244 9.0 15.0 0.00 0.19 0.00 84 1004.8
20260904004704 60 255 6.0 15.0 0.00 0.19 0.00 84 1004.9
20260904003706 60 241 12.0 16.0 0.00 0.19 0.00 84 1005.1
20260904003205 60 229 8.0 17.0 0.00 0.19 0.00 84 1005.0
20260904002206 60 267 10.0 18.0 0.00 0.19 0.00 84 1005.0
20260904001706 60 253 10.0 21.0 0.00 0.19 0.00 84 1005.0
20260904001206 60 248 11.0 17.0 0.00 0.19 0.00 84 1005.0
20260904000705 60 270 10.0 17.0 0.00 0.19 0.00 84 1004.9
20260904000211 60 259 7.0 15.0 0.00 0.19 0.00 84 1004.8
20260903235711 60 256 11.0 16.0 0.00 0.19 0.00 84 1005.3
20260903234710 60 264 9.0 17.0 0.00 0.19 0.00 84 1005.3